{"data":{"norad_id":62567,"intl_designator":"2025-006P","name":"STARLINK-32752","alt_names":[],"object_type":"PAYLOAD","status":"ACTIVE","operator":null,"country":"US","launch_date":"2025-01-10","launch_site_code":"AFETR","launch_vehicle":null,"mission":null,"orbit_class":"UNKNOWN","rcs_meters":null,"size_class":null,"mass_kg":null,"dimensions":null,"purposes":["comms"],"wikipedia_slug":null,"has_3d_model":false,"image_url":null,"decayed_at":null,"tle_current":{"epoch":"2026-09-21T11:16:17.085216Z","epoch_age_seconds":87573,"freshness":"FRESH","line1":"1 62567U 25006P   26264.46964219  .00009502  00000+0  35421-3 0  9993","line2":"2 62567  43.0027 267.0073 0001498 272.0793  87.9887 15.27593988 94806","mean_motion":15.27593988,"eccentricity":0.0001498,"inclination_deg":43.0027,"raan_deg":267.0073,"arg_perigee_deg":272.0793,"mean_anomaly_deg":87.9887,"bstar":0.00035421,"rev_number":9480,"period_min":94.265885524027,"perigee_km":481.97941185227,"apogee_km":484.03501065796,"semimajor_km":6861.1442112551,"source":"CELESTRAK","updated_at":"2026-09-22T09:00:49.628576Z"}}}